YAMAL 202

Last updated on Thu Mar 05 2026 00:02:55 GMT+0000 (Coordinated Universal Time)

1 28089U 03053A 26063.41395816 -.00000090 00000+0 00000+0 0 9990 2 28089 6.0780 72.2162 0005616 240.9837 161.4705 1.00272149 81651
UTC large
Height (km)
Speed (km/s)
/
Latitude / Longitude
Inclination (degrees)
Orbital Period (minutes)
Azimuth
Elevation
Range (km)
Doppler Factor

Next 0 passes for location: London (51.5072 / 0.1276)

Sorry there are no passes over London.